Regional Weather Roundup
Issued by NWS Upton, NY

Home | Current Version | Previous Version | Text Only | Print | Product List | Glossary On
Versions: 1 2 3 4 5 6 7 8 9 10 11 12 13 14 15 16 17 18 19 20 21 22 23 24 25 26 27 28 29 30 31 32 33 34 35 36 37 38 39 40 41 42 43 44 45 46 47 48 49 50
000
ASUS41 KOKX 261009
RWROKX

REGIONAL WEATHER ROUNDUP
NATIONAL WEATHER SERVICE NEW YORK NY
600 AM EDT TUE SEP 26 2017

NOTE: "FAIR" INDICATES FEW OR NO CLOUDS BELOW 12,000 FEET WITH NO
SIGNIFICANT WEATHER AND/OR OBSTRUCTIONS TO VISIBILITY.

NYZ071-072-176-178-NJZ106-104-261100-
NEW YORK CITY METRO AREA

CITY           SKY/WX    TMP DP  RH WIND       PRES   REMARKS
Central Park   PTCLDY    69  66  90 CALM      30.06S
Bronx Bot Gard   N/A     68  64  88 SE1       30.05R
LaGuardia APRT MOCLDY    69  67  93 E8        30.02R
Kennedy INTL   CLOUDY    68  66  93 NE6       30.03S
Breezy Point     N/A     66 N/A N/A NE3         N/A
Newark/Liberty MOCLDY    69  66  90 N3        30.02F
Teterboro      PTCLDY    68  65  90 N3        30.01F
$$

NYZ177-179-078>081-261100-
LONG ISLAND NEW YORK

CITY           SKY/WX    TMP DP  RH WIND       PRES   REMARKS
Jones Beach      N/A     66 N/A N/A NE5         N/A
Matinecock PT    N/A     68 N/A N/A NE6         N/A
Farmingdale    CLOUDY    67  66  97 N6        30.03R FOG
MacArthur/ISP  MOCLDY    65  65 100 N5        30.03R FOG
Shirley        FOG       67  65  93 CALM      30.04R VSB 3/4
Mt Sinai Harb    N/A     66 N/A N/A MISG        N/A
Westhampton    FOG       65  64  97 CALM      30.05R VSB 1/4
East Hampton   CLOUDY    65  64  99 SE3       30.04R FOG
Montauk          N/A     66  66 100 CALM      30.05R
$$

NYZ052-065-067-261100-
HUDSON VALLEY

CITY           SKY/WX    TMP DP  RH WIND       PRES   REMARKS
White Plains   FOG       67  65  93 NW5       30.03F VSB 1/4
Larchmont Harb   N/A     66 N/A N/A N3          N/A
Croton On Huds   N/A     66 N/A N/A CALM        N/A
Newburgh       CLEAR     66  64  94 CALM      30.06S
Montgomery     PTCLDY    62  61  96 CALM      30.04S FOG
Poughkeepsie   PTCLDY    64  62  93 CALM      30.03R
Albany         PTCLDY    67  65  93 CALM      30.04R
$$

NJZ001-105-106-008-010-013-015-019>022-104-261100-
NEW JERSEY

CITY           SKY/WX    TMP DP  RH WIND       PRES   REMARKS
Newark/Liberty MOCLDY    69  66  90 N3        30.02F
Teterboro      PTCLDY    68  65  90 N3        30.01F
Caldwell       FOG       65  65 100 CALM      30.03F VSB 1/4
Somerville     NOT AVBL
Linden         FAIR      68  65  88 CALM      30.03R
Perth Amboy      N/A     68 N/A N/A E5          N/A
Sussex         PTCLDY    63  62  97 CALM      30.05S FOG
Andover          N/A     63  62  97 CALM      30.05S
Trenton        CLOUDY    66  65  96 E6        30.02F
Millville      CLOUDY    68  68 100 E8        30.00R
Atlantic City  CLOUDY    67  67 100 NE7       30.01R FOG
Wrightstown    CLOUDY    67  66  98 N9        30.00R
Toms River     LGT RAIN  66  66 100 NE6       30.03S FOG
Belmar         FOG       66  65  96 MISG      30.03S VSB 1
$$

PAZ047>061-062-071-261100-
EASTERN PENNSYLVANIA

CITY           SKY/WX    TMP DP  RH WIND       PRES   REMARKS
Philadelphia   MOCLDY    67  64  90 NE7       30.01S
Allentown      CLOUDY    65  61  87 N3        30.03F
Scranton       CLEAR     66  64  93 E5        30.07R
$$

CTZ002-004>006-009-010-012-RIZ004-006-007-MAZ004-011-015-261100-
SOUTHERN NEW ENGLAND
 IN CT

CITY           SKY/WX    TMP DP  RH WIND       PRES   REMARKS
Bradley INTL   FOG       65  65 100 S5        30.04F VSB 1/4
Hartford       FOG       66  66 100 CALM      30.04S VSB 3/4
Danbury        FOG       66  64  93 CALM      30.05F VSB 3/4
Wtrbury/Oxford FOG       63  63 100 CALM      30.06S VSB 1/4
Norwalk Harbor   N/A     66 N/A N/A N2          N/A
Bridgeport     CLOUDY    68  67  96 CALM      30.03S FOG
Meriden        CLOUDY    64  64 100 CALM      30.04S
New Haven      FOG       67  66  97 N5        30.03F VSB 1
Chester        FOG       64  64 100 N3        30.04F VSB<1/4
Groton         CLOUDY    67  66  97 N6        30.02S
Wilimantic     CLOUDY    67  67 100 CALM      30.04S FOG

 IN RI

CITY           SKY/WX    TMP DP  RH WIND       PRES   REMARKS
Providence     CLOUDY    69  68  96 NW6       30.03F
Block Island   FOG       65  65 100 CALM      30.04S VSB 1/2
Westerly       FOG       67  66  97 CALM      30.04R VSB 1/2
 IN MA

CITY           SKY/WX    TMP DP  RH WIND       PRES   REMARKS
Boston         FOG       64  64 100 SE5       30.02S VSB 1
Worcester      CLOUDY    64  61  90 W6        30.06R
Westfield      FOG       63  63 100 CALM      30.04S VSB 1/4
Provincetown   LGT RAIN  63  62  97 CALM      30.04R FOG
Nantucket      FOG       63  63 100 CALM      30.02S VSB<1/4
$$

ANZ330-335-338-340-345-350-353-355-261100-
COASTAL MARINE OBSERVATIONS


STATION/POSITION TIME  SKY/WX   TEMP    WIND        PRES    VSBY  WAVE
                                AIR SEA DIR/SP/G                  HT/PER
                 (UTC)          (F)     (DEG/KT/KT) (MB)    (MI)  (FT/S)
NY HARB ENTRANCE 0850            67 72   70/  4/  6 1016.3          4/14
20 S FIRE ISLAND 0950            65 69   50/ 10/ 12 1016.4          6/11
GREAT SOUTH BAY  0930            66 73     CALM       N/A
23 SSW MONTAUK P 0950            64 64              1017.2          8/15
15 E BARNEGAT LI 0930               70                N/A           4/14
HUDSON CANYON    0850            65 69   60/ 12/ 14 1015.3         10/14
KINGS POINT      0948            67 72  100/  2/  4 1017.5
EXECUTION ROCKS  0945            69      40/  4/  6   N/A
WESTERN LI SOUND NOT AVBL
CENTRAL LI SOUND 0900            67      30/  4/  6   N/A           0
EASTERN LI SOUND NOT AVBL
ROBBINS REEF     0948            69     350/  4/  5 1017.3
$$


>>>>>>>>>>>>>>>>>>>>>>>>>>>> KEY <<<<<<<<<<<<<<<<<<<<<<<<<<<
>                                                          <
>     SKY/WX - Sky Condition/Present Weather               <
>     TMP    - Temperature in Fahrenheit                   <
>     DP     - Dew Point in Fahrenheit                     <
>     RH     - Relative Humidity in Percent                <
>     WIND   - Direction (from) and Speed in MPH           <
>     PRES   - Mean Sea Level Pressure (inches of Hg)      <
>     WCI    - Wind Chill Index                            <
>     VSB    - VISIBILITY IN MILES                         <
>     HX     - HEAT INDEX                                  <
>     TC     - TEMPERATURE IN CELSIUS                      <
>     VRB    - VARIABLE WIND DIRECTION                     <
>                                                          <
>>>>>>>>>>>>>>>>>>>>>>>>>>>> KEY <<<<<<<<<<<<<<<<<<<<<<<<<<<



USA.gov is the U.S. government's official web portal to all federal, state and local government web resources and services.